Regional Weather Roundup
Issued by NWS

Home | Current Version | Previous Version | Text Only | Print | Product List | Glossary On
Versions: 1 2 3 4 5 6 7 8 9 10 11 12 13 14 15 16 17 18 19 20 21 22 23 24 25 26 27 28 29 30 31 32 33 34 35 36 37 38 39 40 41 42 43 44 45 46 47 48 49 50
000
ASUS44 KOUN 240910
RWROK

WEATHER ROUNDUP FOR OKLAHOMA
NATIONAL WEATHER SERVICE NORMAN OK
400 AM CDT FRI OCT 24 2014

NOTE: "FAIR" INDICATES FEW OR NO CLOUDS BELOW 12,000 FEET WITH NO
      SIGNIFICANT WEATHER AND/OR OBSTRUCTIONS TO VISIBILITY.

OKZ001>007-009>012-014-015-017-241000-
NORTHWEST OKLAHOMA AND THE PANHANDLE

CITY           SKY/WX    TMP DP  RH WIND       PRES   REMARKS
GAGE           CLEAR     57  56  96 W5        30.07F FOG
ENID/WOODRING    N/A     55  55 100 S6        30.06S FOG
$$

OKZ016-021>023-033>039-044-045-241000-
SOUTHWEST OKLAHOMA

CITY           SKY/WX    TMP DP  RH WIND       PRES   REMARKS
LAWTON/REGL    CLEAR     60  56  86 E5        30.08F
LAWTON/FT SILL CLEAR     60  56  88 SE2       30.07F
FREDERICK      CLEAR     61  57  87 SE7       30.05F
CLINTON        CLEAR     61  57  87 S10       30.09F
HOBART         CLEAR     61  58  90 S9        30.08F
ALTUS AFB      CLEAR     57  57 100 E5        30.07F
$$

OKZ018>020-024>031-241000-
CENTRAL OKLAHOMA

CITY           SKY/WX    TMP DP  RH WIND       PRES   REMARKS
OKLAHOMA CITY  PTCLDY    57  54  89 SE6       30.09S
OKC/WILEY POST CLEAR     61  57  87 S12       30.08F
OKC/TINKER AFB CLEAR     59  56  88 S9        30.09F
STILLWATER     CLEAR     58  55  90 S6        30.09S
GUTHRIE        CLEAR     61  57  87 S9        30.08F
$$

OKZ008-013-054>072-241000-
NORTHEAST OKLAHOMA

CITY           SKY/WX    TMP DP  RH WIND       PRES   REMARKS
TULSA          MOCLDY    60  55  83 S7        30.10S
TULSA/JONES    CLOUDY    56  55  97 CALM      30.11F
PONCA CITY     CLEAR     59  56  89 SE8       30.07F
BARTLESVILLE   CLEAR     54  54 100 CALM      30.11S FOG
MUSKOGEE       CLEAR     54  52  93 S6        30.13F
$$

OKZ032-040>043-046>053-073>077-241000-
SOUTH CENTRAL/SOUTHEAST OKLAHOMA

CITY           SKY/WX    TMP DP  RH WIND       PRES   REMARKS
ARDMORE/DWNTWN CLEAR     55  54  94 CALM      30.11S
MCALESTER      PTCLDY    52  51  97 CALM      30.13S
$$




USA.gov is the U.S. government's official web portal to all federal, state and local government web resources and services.